[[{"header":{"parameterUnit":"m.s-1","parameterCategory":1,"la1":30.2991,"la2":30.254,"lo1":-89.0895,"lo2":-89.0444,"dy":0.0017,"dx":0.0017,"nx":28,"ny":28,"refTime":"2024-08-06T21:00:00:Z","depth":0,"parameterNumber":2,"parameterNumberName":"U-component_of_WINDS"},"data":[0,0,0,0,0,0,0,0,0,0,0,0,0,0,0,0,0,0,0,0,0,0,0,0,0,0,0,0,0,0,0,0,0,0,0,0,0,0,0,0,0,0,0,0,0,0,0,0,0,0,0,0,0,0,0,0,0,0,2.9351,2.9352,0,2.9414,2.9415,2.9415,2.9353,2.9351,2.9348,2.9346,2.9416,2.942,2.9424,0,0,0,0,0,0,0,0,0,0,0,0,0,2.9185,2.9188,2.9351,2.9352,2.9352,2.9414,2.9415,2.9416,2.9354,2.9351,2.9348,2.9345,2.9415,2.942,2.9425,0,0,0,0,0,0,0,0,0,0,0,0,0,2.9254,2.9189,2.9351,2.9329,2.9327,2.9414,2.9415,2.9416,2.9354,2.9351,2.9347,2.9344,2.9413,2.9419,2.9426,2.9538,0,0,2.9445,2.9447,0,0,0,0,0,0,0,0,2.925,2.926,2.9331,2.933,2.9329,2.9372,2.9382,2.9457,2.9355,2.9344,2.9346,2.9342,2.9405,2.9412,2.9432,2.9542,2.9545,2.9445,2.9449,2.9452,2.9453,0,0,0,0,0,0,0,2.9245,2.9257,2.9376,2.9332,2.9331,2.9319,2.9324,2.9396,2.9395,2.9345,2.9341,2.9349,2.9404,2.9426,2.9433,2.9546,2.9445,2.9451,2.9454,2.9457,2.9757,2.9761,0,0,0,0,0,0,2.9242,2.9253,2.9374,2.9378,2.9279,2.9325,2.9331,2.9362,2.9394,2.9395,2.9352,2.9346,2.9417,2.9426,2.9435,2.9573,2.9452,2.9458,2.9461,2.9753,2.9758,2.9763,0,0,0,0,0,0,2.9238,2.9253,2.9371,2.9314,2.9328,2.9331,2.9367,2.9365,2.9387,2.9399,2.9399,2.9374,2.9414,2.9426,2.9514,2.9575,2.946,2.9466,2.9748,2.9755,2.9761,2.9848,0,0,0,0,0,0,2.9234,2.9252,2.9293,2.9316,2.9332,2.9447,2.937,2.9369,2.9398,2.939,2.942,2.9421,2.9412,2.9505,2.952,2.9581,2.9471,2.9743,2.9751,2.9759,2.984,2.9857,2.9871,0,0,0,0,0,2.9228,2.9315,2.9295,2.931,2.9382,2.945,2.946,2.9446,2.9402,2.9445,2.9454,2.942,2.9565,2.9515,2.9531,2.9595,2.9739,2.9749,2.9758,2.9833,2.9853,2.9871,0,0,0,0,0,0,2.93,2.9317,2.9296,2.9392,2.942,2.944,2.9493,2.9467,2.951,2.9501,2.9484,2.9492,2.9586,2.9598,2.9542,2.9709,2.9646,2.9659,2.9697,2.9716,2.9732,2.9728,2.9476,0,0,0,0,0,2.9327,2.9378,2.9391,2.9475,2.9491,2.949,2.9519,2.9506,2.9535,2.9547,2.9562,2.9593,2.9647,2.9682,2.9731,2.9841,2.985,2.9894,2.9909,2.9922,2.9935,2.9999,3.0021,2.9794,2.9794,2.9794,0,0,2.9383,2.9399,2.9432,2.949,2.9511,2.9568,2.95,2.9562,2.9606,2.9557,2.9642,2.9654,2.9688,2.9789,2.9834,2.9803,2.9999,2.9934,2.9944,2.995,3.0011,3.0033,3.0052,2.9801,2.9799,2.9798,0,0,2.9515,2.9531,2.9604,2.9627,2.9658,2.9658,2.9676,2.97,2.9707,2.979,2.9757,2.981,2.99,2.9928,2.9953,3.0101,3.0075,3.0118,3.02,3.0264,3.0282,3.0297,3.0355,3.0375,3.013,3.013,3.013,0,2.9582,2.9664,2.9646,2.9712,2.9741,2.9699,2.9776,2.9799,2.9846,2.9868,2.9832,2.9948,2.9968,3.0077,3.0114,3.0135,3.0158,3.0115,3.028,3.0296,3.031,3.0365,3.0386,3.0135,3.0135,3.0134,3.0134,0,2.9747,2.9805,2.9861,2.9908,2.9942,3.0013,3.001,3.0047,3.0033,3.0037,3.0127,3.0149,3.0205,3.0229,3.0215,3.0339,3.0319,3.0282,3.0218,3.0338,3.0389,3.0409,3.0143,3.0141,3.0139,3.0138,0,0,2.9925,2.9962,2.9984,3.0007,3.004,3.0087,3.0158,3.0211,3.0247,3.0281,3.0344,3.0423,3.039,3.042,3.0409,3.0464,3.0586,3.0421,3.0422,3.0454,3.073,3.076,3.0784,3.0568,3.0571,3.0575,3.0728,0,3.0061,3.0183,3.0171,3.0289,3.0346,3.0309,3.0372,3.0402,3.0409,3.046,3.0468,3.0527,3.0476,3.0495,3.0548,3.056,3.0642,3.0548,3.063,3.0633,3.0625,3.081,3.0841,3.0984,3.0747,3.0751,3.0753,0,3.0236,3.0278,3.0401,3.0431,3.0454,3.0511,3.0561,3.0609,3.0644,3.0646,3.0681,3.0662,3.0739,3.0672,3.078,3.0717,3.075,3.0762,3.0767,3.0776,3.0702,3.0828,3.1029,3.1052,3.0784,3.0781,3.0779,0,3.036,3.0446,3.0532,3.0552,3.0588,3.0629,3.0647,3.0677,3.0712,3.0757,3.078,3.0833,3.0864,3.0908,3.0906,3.0856,3.1017,3.0949,3.1024,3.1025,3.1061,3.106,3.1275,3.1077,3.1077,3.1077,3.1076,0,3.0515,3.0593,3.0589,3.0642,3.073,3.0717,3.0805,3.0818,3.0847,3.0905,3.0876,3.0932,3.0924,3.0982,3.098,3.1073,3.1086,3.1093,3.1092,3.1097,3.1097,3.112,3.1112,3.1082,3.1081,3.108,3.1079,0,3.0668,3.0667,3.076,3.0786,3.0795,3.086,3.0884,3.0937,3.0942,3.1017,3.1034,3.1043,3.111,3.1111,3.1187,3.1187,3.1301,3.1287,3.1289,3.1288,3.1365,3.1359,3.1605,3.1639,3.1416,3.1418,3.142,0,3.0768,3.0828,3.0862,3.0898,3.0918,3.0976,3.1012,3.1003,3.1041,3.1088,3.1137,3.12,3.125,3.1359,3.1375,3.1435,3.1425,3.1507,3.1434,3.1439,3.1431,3.1429,3.1438,3.1522,3.1525,3.1527,3.1528,0,3.0949,3.0947,3.0997,3.1051,3.1094,3.1135,3.1173,3.1205,3.1201,3.1247,3.1314,3.1353,3.1432,3.1498,3.1556,3.1577,3.1555,3.1551,3.1572,3.158,3.158,3.1586,3.1332,3.1546,3.1544,3.1543,3.1542,3.1541,3.1081,3.1134,3.1168,3.1227,3.1255,3.1293,3.1345,3.1358,3.1413,3.1475,3.1467,3.1544,3.1582,3.1658,3.1684,3.1747,3.1719,3.1748,3.1757,3.1765,3.1776,3.1568,3.1757,3.1756,3.1756,3.1755,3.1755,0,3.1264,3.1284,3.1339,3.1394,3.1442,3.1414,3.1456,3.15,3.1567,3.1603,3.1654,3.1734,3.1799,3.182,3.1884,3.193,3.1922,3.1948,3.1946,3.1952,3.1795,3.1772,3.1954,3.1954,3.1954,3.1954,3.1953,3.1953,3.1365,3.1455,3.1457,3.1563,3.1583,3.1656,3.1684,3.172,3.175,3.184,3.1893,3.1906,3.1939,3.2005,3.2065,3.207,3.2097,3.2128,3.2129,3.1982,3.1963,3.1944,3.1922,3.2133,3.2133,3.2282,3.2284,3.2285]},{"header":{"parameterUnit":"m.s-1","parameterCategory":1,"la1":30.2991,"la2":30.254,"lo1":-89.0895,"lo2":-89.0444,"dy":0.0017,"dx":0.0017,"nx":28,"ny":28,"refTime":"2024-08-06T21:00:00:Z","depth":0,"parameterNumber":3,"parameterNumberName":"V-component_of_WINDS"},"data":[0,0,0,0,0,0,0,0,0,0,0,0,0,0,0,0,0,0,0,0,0,0,0,0,0,0,0,0,0,0,0,0,0,0,0,0,0,0,0,0,0,0,0,0,0,0,0,0,0,0,0,0,0,0,0,0,0,0,-0.2401,-0.2399,0,-0.2189,-0.2187,-0.2184,-0.216,-0.2162,-0.2164,-0.2166,-0.194,-0.1932,-0.1924,0,0,0,0,0,0,0,0,0,0,0,0,0,-0.2777,-0.277,-0.2402,-0.2399,-0.2396,-0.219,-0.2187,-0.2184,-0.216,-0.2162,-0.2165,-0.2167,-0.1942,-0.1933,-0.1923,0,0,0,0,0,0,0,0,0,0,0,0,0,-0.2594,-0.2768,-0.2402,-0.236,-0.2354,-0.219,-0.2187,-0.2183,-0.2159,-0.2162,-0.2166,-0.2169,-0.1946,-0.1934,-0.1922,-0.1783,0,0,-0.1885,-0.188,0,0,0,0,0,0,0,0,-0.2604,-0.258,-0.2368,-0.2362,-0.2355,-0.2205,-0.2236,-0.2049,-0.2158,-0.2233,-0.2166,-0.217,-0.2025,-0.2006,-0.1959,-0.1773,-0.1763,-0.1884,-0.1877,-0.1872,-0.1868,0,0,0,0,0,0,0,-0.2617,-0.2589,-0.2317,-0.2365,-0.2357,-0.2348,-0.2326,-0.22,-0.2113,-0.2226,-0.2224,-0.22,-0.2022,-0.1971,-0.1954,-0.176,-0.1884,-0.1874,-0.1866,-0.1862,-0.1448,-0.1444,0,0,0,0,0,0,-0.2639,-0.26,-0.2324,-0.2311,-0.2491,-0.2339,-0.2314,-0.225,-0.2114,-0.2097,-0.2198,-0.22,-0.199,-0.1968,-0.1946,-0.1773,-0.1872,-0.186,-0.1853,-0.1452,-0.1447,-0.1443,0,0,0,0,0,0,-0.2647,-0.2614,-0.2332,-0.2455,-0.2418,-0.2329,-0.2257,-0.2244,-0.2193,-0.2093,-0.2076,-0.2162,-0.1992,-0.1963,-0.1824,-0.1765,-0.1855,-0.1844,-0.1456,-0.145,-0.1445,-0.1429,0,0,0,0,0,0,-0.2658,-0.2617,-0.2566,-0.2454,-0.2412,-0.2217,-0.2254,-0.2237,-0.2173,-0.2174,-0.2055,-0.2038,-0.1992,-0.1842,-0.1812,-0.175,-0.1835,-0.1461,-0.1453,-0.1447,-0.1434,-0.1423,-0.1414,0,0,0,0,0,-0.2671,-0.2568,-0.2563,-0.253,-0.2346,-0.2214,-0.2189,-0.2141,-0.2169,-0.2115,-0.205,-0.2042,-0.1778,-0.1829,-0.1794,-0.1728,-0.1464,-0.1455,-0.1447,-0.1438,-0.1425,-0.1414,0,0,0,0,0,0,-0.2671,-0.2552,-0.2546,-0.2404,-0.232,-0.221,-0.214,-0.2129,-0.2032,-0.2036,-0.1978,-0.1951,-0.1815,-0.1757,-0.1817,-0.1586,-0.1623,-0.1607,-0.1628,-0.1615,-0.1605,-0.162,-0.1825,0,0,0,0,0,-0.2656,-0.2562,-0.2461,-0.2345,-0.2304,-0.223,-0.217,-0.2141,-0.205,-0.2013,-0.1938,-0.1848,-0.1744,-0.1676,-0.1576,-0.1427,-0.1399,-0.1364,-0.1354,-0.1346,-0.1332,-0.1248,-0.1231,-0.1415,-0.1415,-0.1415,0,0,-0.262,-0.2544,-0.2487,-0.2343,-0.2275,-0.2176,-0.2199,-0.2094,-0.2019,-0.1995,-0.1861,-0.1803,-0.1698,-0.1554,-0.1487,-0.1502,-0.1276,-0.1335,-0.133,-0.132,-0.1237,-0.122,-0.1205,-0.1409,-0.141,-0.1411,0,0,-0.2505,-0.2439,-0.2335,-0.2266,-0.2164,-0.2115,-0.209,-0.1983,-0.1945,-0.181,-0.179,-0.1699,-0.1522,-0.1448,-0.1387,-0.1246,-0.1234,-0.1215,-0.1161,-0.1079,-0.1065,-0.1051,-0.0999,-0.0981,-0.1202,-0.1202,-0.1202,0,-0.2473,-0.2326,-0.2282,-0.2177,-0.2113,-0.2092,-0.1985,-0.1919,-0.1787,-0.1742,-0.1763,-0.1541,-0.1469,-0.1306,-0.1272,-0.1224,-0.1192,-0.1226,-0.1071,-0.1057,-0.1044,-0.0993,-0.0974,-0.12,-0.12,-0.12,-0.12,0,-0.2291,-0.219,-0.2117,-0.1994,-0.1923,-0.1817,-0.1754,-0.1686,-0.1663,-0.1612,-0.1474,-0.1387,-0.1268,-0.1228,-0.1203,-0.1061,-0.1074,-0.1084,-0.1119,-0.1026,-0.0977,-0.0957,-0.1197,-0.1198,-0.1199,-0.1199,0,0,-0.2167,-0.2023,-0.1997,-0.1941,-0.1827,-0.1745,-0.1638,-0.1525,-0.1467,-0.1378,-0.1284,-0.1136,-0.1145,-0.1076,-0.1042,-0.0971,-0.0863,-0.0989,-0.0985,-0.0967,-0.0699,-0.0691,-0.067,-0.0856,-0.0852,-0.0849,-0.0708,0,-0.2037,-0.1849,-0.1806,-0.1643,-0.1547,-0.1527,-0.1433,-0.1351,-0.1301,-0.121,-0.1153,-0.1049,-0.1069,-0.1027,-0.0956,-0.0892,-0.0808,-0.0901,-0.0765,-0.0761,-0.079,-0.0645,-0.0635,-0.0506,-0.0689,-0.0685,-0.0683,0,-0.186,-0.177,-0.1598,-0.1497,-0.1455,-0.1372,-0.1265,-0.1179,-0.1086,-0.1054,-0.0978,-0.0953,-0.0838,-0.0882,-0.0721,-0.0785,-0.0727,-0.0687,-0.0681,-0.0664,-0.0714,-0.0621,-0.0464,-0.0444,-0.0653,-0.0655,-0.0657,0,-0.1784,-0.1619,-0.1495,-0.1448,-0.1327,-0.1269,-0.1216,-0.1126,-0.1061,-0.0966,-0.0923,-0.0816,-0.0756,-0.0672,-0.0618,-0.0655,-0.046,-0.05,-0.0428,-0.0429,-0.0385,-0.0388,-0.0214,-0.0353,-0.0353,-0.0353,-0.0354,0,-0.1642,-0.1536,-0.146,-0.1383,-0.1264,-0.1216,-0.1098,-0.1044,-0.0965,-0.0875,-0.085,-0.0766,-0.0701,-0.0606,-0.0563,-0.0435,-0.0409,-0.0378,-0.0367,-0.0378,-0.0382,-0.0337,-0.0344,-0.0348,-0.0349,-0.035,-0.0351,0,-0.1535,-0.148,-0.1343,-0.1242,-0.1214,-0.113,-0.1042,-0.0965,-0.0916,-0.0803,-0.0773,-0.0694,-0.0582,-0.0521,-0.0379,-0.035,-0.0207,-0.0202,-0.0239,-0.0234,-0.0165,-0.0171,0.0047,0.0079,-0.0084,-0.0082,-0.0081,0,-0.1447,-0.1366,-0.1257,-0.1198,-0.1144,-0.1047,-0.0982,-0.0931,-0.0863,-0.0751,-0.0687,-0.0575,-0.0482,-0.0304,-0.0232,-0.0124,-0.0114,-0.0045,-0.0097,-0.0111,-0.011,-0.0115,-0.0105,-0.0035,-0.0034,-0.0032,-0.0031,0,-0.1295,-0.1272,-0.1181,-0.1079,-0.1003,-0.092,-0.0837,-0.0788,-0.0723,-0.0648,-0.0535,-0.0464,-0.0322,-0.0209,-0.0096,-0.0037,-0.0022,-0.0017,0.0007,-0.0003,-0.0027,-0.0011,-0.0212,-0.0021,-0.0022,-0.0022,-0.0023,-0.0023,-0.1193,-0.112,-0.1033,-0.0931,-0.0865,-0.0789,-0.0712,-0.0654,-0.0561,-0.0443,-0.0418,-0.0299,-0.0206,-0.0053,0.0008,0.0104,0.0092,0.0124,0.0133,0.0141,0.0145,-0.0046,0.0125,0.0125,0.0125,0.0124,0.0124,0,-0.1038,-0.0982,-0.0889,-0.0776,-0.0696,-0.0694,-0.0603,-0.0534,-0.0431,-0.0348,-0.0258,-0.0128,-0.002,0.0059,0.0171,0.0233,0.0243,0.0261,0.0258,0.0272,0.0149,0.0119,0.0251,0.0251,0.0251,0.0251,0.0251,0.0251,-0.0948,-0.0824,-0.0791,-0.0634,-0.0577,-0.0463,-0.0411,-0.0339,-0.0273,-0.013,-0.0041,0.0008,0.0091,0.0207,0.0308,0.0329,0.037,0.0387,0.0409,0.0294,0.028,0.0268,0.024,0.0395,0.0395,0.0525,0.0526,0.0527]}]]